SWA3222 KMCO-KBHM

Flight info

Callsign SWA3222
Flight time N/A
Altitude 38000
Route RDSOX1 JFRYS PATOY Q116 DEEDA WANDS
Aircraft B737/M-SADE2E3GIJ4RWZ/LB1D1

Departure

Time N/A
Airport Orlando International Airport (KMCO)

Arrival

Time 2026-05-03 20:47
Airport Birmingham-Shuttlesworth International Airport (KBHM)
Time Latitude Longitude Altitude Speed Heading
2026-05-03 20:15 31.57735 -85.01539 38172 ft 414 kts 311°
2026-05-03 20:15 31.62436 -85.05503 38173 ft 415 kts 311°
2026-05-03 20:16 31.67127 -85.09458 38172 ft 415 kts 311°
2026-05-03 20:16 31.71809 -85.13419 38171 ft 414 kts 311°
2026-05-03 20:17 31.76446 -85.17351 38175 ft 414 kts 311°
2026-05-03 20:17 31.81116 -85.21318 38173 ft 414 kts 311°
2026-05-03 20:18 31.84079 -85.23838 38172 ft 414 kts 311°
2026-05-03 20:19 31.88111 -85.27239 38171 ft 415 kts 312°
2026-05-03 20:19 31.92796 -85.31203 38172 ft 415 kts 312°
2026-05-03 20:20 31.97479 -85.35180 38169 ft 415 kts 312°
2026-05-03 20:20 31.99825 -85.37176 37895 ft 417 kts 312°
2026-05-03 20:20 32.02164 -85.39171 37469 ft 412 kts 312°
2026-05-03 20:20 32.04491 -85.41155 36772 ft 413 kts 313°
2026-05-03 20:21 32.06792 -85.43118 36096 ft 413 kts 313°
2026-05-03 20:21 32.09122 -85.45107 35395 ft 414 kts 313°
2026-05-03 20:21 32.11447 -85.47093 34827 ft 411 kts 313°
2026-05-03 20:21 32.13747 -85.49060 34326 ft 406 kts 313°
2026-05-03 20:22 32.16020 -85.51004 33833 ft 401 kts 313°
2026-05-03 20:22 32.18269 -85.52930 33346 ft 397 kts 313°
2026-05-03 20:22 32.20495 -85.54838 32865 ft 393 kts 313°
2026-05-03 20:22 32.22692 -85.56722 32391 ft 389 kts 314°
2026-05-03 20:23 32.24877 -85.58596 31921 ft 385 kts 314°
2026-05-03 20:23 32.27031 -85.60445 31459 ft 382 kts 314°
2026-05-03 20:23 32.29170 -85.62282 31001 ft 378 kts 314°
2026-05-03 20:23 32.31215 -85.64040 30564 ft 375 kts 314°
2026-05-03 20:24 32.33391 -85.65911 30100 ft 371 kts 315°
2026-05-03 20:24 32.35473 -85.67702 29648 ft 368 kts 315°
2026-05-03 20:24 32.37510 -85.69455 29187 ft 365 kts 315°
2026-05-03 20:24 32.39557 -85.71218 28722 ft 362 kts 315°
2026-05-03 20:25 32.41588 -85.72968 28259 ft 359 kts 315°
2026-05-03 20:25 32.43595 -85.74699 27799 ft 356 kts 315°
2026-05-03 20:25 32.45591 -85.76421 27340 ft 353 kts 316°
2026-05-03 20:25 32.47576 -85.78135 26884 ft 351 kts 316°
2026-05-03 20:26 32.49542 -85.79834 26432 ft 348 kts 316°
2026-05-03 20:26 32.51493 -85.81520 25983 ft 346 kts 316°
2026-05-03 20:26 32.53430 -85.83195 25537 ft 344 kts 316°
2026-05-03 20:26 32.55359 -85.84864 25092 ft 342 kts 317°
2026-05-03 20:27 32.57271 -85.86519 24651 ft 339 kts 317°
2026-05-03 20:27 32.59175 -85.88169 24209 ft 337 kts 317°
2026-05-03 20:27 32.61065 -85.89806 23772 ft 335 kts 317°
2026-05-03 20:27 32.62945 -85.91436 23336 ft 333 kts 317°
2026-05-03 20:28 32.64810 -85.93054 22904 ft 331 kts 318°
2026-05-03 20:28 32.66432 -85.94462 22526 ft 330 kts 318°
2026-05-03 20:28 32.68277 -85.96065 22094 ft 328 kts 318°
2026-05-03 20:28 32.70112 -85.97658 21663 ft 326 kts 319°
2026-05-03 20:29 32.71936 -85.99244 21233 ft 324 kts 319°
2026-05-03 20:29 32.73749 -86.00822 20803 ft 322 kts 319°
2026-05-03 20:29 32.75552 -86.02391 20371 ft 321 kts 319°
2026-05-03 20:29 32.77349 -86.03956 19938 ft 319 kts 319°
2026-05-03 20:30 32.79113 -86.05492 19512 ft 318 kts 320°
2026-05-03 20:30 32.80891 -86.07042 19079 ft 316 kts 320°
2026-05-03 20:30 32.82660 -86.08584 18647 ft 315 kts 320°
2026-05-03 20:30 32.84419 -86.10118 18215 ft 313 kts 320°
2026-05-03 20:31 32.86177 -86.11653 17720 ft 315 kts 320°
2026-05-03 20:31 32.87954 -86.13205 17199 ft 317 kts 321°
2026-05-03 20:31 32.89732 -86.14758 16740 ft 316 kts 321°
2026-05-03 20:31 32.91504 -86.16298 16288 ft 315 kts 321°
2026-05-03 20:32 32.93270 -86.17833 15840 ft 313 kts 321°
2026-05-03 20:32 32.95022 -86.19361 15394 ft 311 kts 321°
2026-05-03 20:32 32.96765 -86.20886 14949 ft 310 kts 321°
2026-05-03 20:32 32.98496 -86.22403 14506 ft 308 kts 321°
2026-05-03 20:33 33.00217 -86.23914 14061 ft 306 kts 322°
2026-05-03 20:33 33.01924 -86.25413 13617 ft 304 kts 322°
2026-05-03 20:33 33.03617 -86.26902 13174 ft 302 kts 322°
2026-05-03 20:33 33.05305 -86.28387 12728 ft 300 kts 322°
2026-05-03 20:34 33.06978 -86.29859 12281 ft 298 kts 322°
2026-05-03 20:34 33.08641 -86.31323 11831 ft 296 kts 322°
2026-05-03 20:34 33.10300 -86.32784 11375 ft 294 kts 322°
2026-05-03 20:34 33.11920 -86.34211 10918 ft 293 kts 322°
2026-05-03 20:35 33.13579 -86.35672 10442 ft 292 kts 323°
2026-05-03 20:35 33.15188 -86.37091 10074 ft 288 kts 322°
2026-05-03 20:35 33.16563 -86.38725 10018 ft 271 kts 306°
2026-05-03 20:35 33.17474 -86.40606 9808 ft 253 kts 297°
2026-05-03 20:36 33.18205 -86.42476 9407 ft 248 kts 295°
2026-05-03 20:36 33.18888 -86.44403 9014 ft 256 kts 293°
2026-05-03 20:36 33.19569 -86.46393 8610 ft 261 kts 293°
2026-05-03 20:36 33.20313 -86.48369 8238 ft 259 kts 297°
2026-05-03 20:37 33.21106 -86.50286 8187 ft 257 kts 297°
2026-05-03 20:37 33.21905 -86.52213 8186 ft 260 kts 297°
2026-05-03 20:37 33.22709 -86.54156 8186 ft 262 kts 297°
2026-05-03 20:37 33.23515 -86.56108 8178 ft 262 kts 297°
2026-05-03 20:38 33.24317 -86.58049 7942 ft 258 kts 297°
2026-05-03 20:38 33.25104 -86.59959 7484 ft 253 kts 297°
2026-05-03 20:38 33.25880 -86.61840 6729 ft 253 kts 296°
2026-05-03 20:38 33.26656 -86.63724 5980 ft 253 kts 296°
2026-05-03 20:39 33.27430 -86.65601 5288 ft 250 kts 296°
2026-05-03 20:39 33.28210 -86.67448 4587 ft 248 kts 297°
2026-05-03 20:39 33.28981 -86.69281 3887 ft 246 kts 297°
2026-05-03 20:39 33.29744 -86.71113 3407 ft 249 kts 297°
2026-05-03 20:40 33.30504 -86.72949 3221 ft 245 kts 296°
2026-05-03 20:40 33.31256 -86.74770 3145 ft 244 kts 296°
2026-05-03 20:40 33.32007 -86.76595 3082 ft 245 kts 296°
2026-05-03 20:40 33.32756 -86.78420 3027 ft 244 kts 296°
2026-05-03 20:41 33.33503 -86.80243 3026 ft 244 kts 296°
2026-05-03 20:41 33.34364 -86.81953 3012 ft 244 kts 311°
2026-05-03 20:41 33.35747 -86.83107 3030 ft 244 kts 333°
2026-05-03 20:41 33.37309 -86.83914 3037 ft 245 kts 336°
2026-05-03 20:42 33.38882 -86.84712 3034 ft 246 kts 336°
2026-05-03 20:42 33.40452 -86.85508 3033 ft 245 kts 336°
2026-05-03 20:42 33.42024 -86.86304 3034 ft 245 kts 336°
2026-05-03 20:42 33.43580 -86.87093 3030 ft 237 kts 336°
2026-05-03 20:43 33.45089 -86.87757 2944 ft 225 kts 345°
2026-05-03 20:43 33.46569 -86.88171 2759 ft 211 kts 345°
2026-05-03 20:43 33.47964 -86.88553 2461 ft 200 kts 350°
2026-05-03 20:43 33.49284 -86.88268 2125 ft 196 kts 32°
2026-05-03 20:44 33.50126 -86.87018 2051 ft 190 kts 56°
2026-05-03 20:44 33.50766 -86.85675 2048 ft 181 kts 56°
2026-05-03 20:44 33.51358 -86.84441 2038 ft 159 kts 57°
2026-05-03 20:44 33.51911 -86.83380 2029 ft 142 kts 54°
2026-05-03 20:45 33.52447 -86.82426 1943 ft 137 kts 53°
2026-05-03 20:45 33.52982 -86.81496 1693 ft 134 kts 53°
2026-05-03 20:45 33.53505 -86.80583 1408 ft 132 kts 53°
2026-05-03 20:45 33.54017 -86.79691 1184 ft 128 kts 53°
2026-05-03 20:46 33.54347 -86.79110 1057 ft 129 kts 54°
2026-05-03 20:46 33.54876 -86.78189 900 ft 138 kts 53°
2026-05-03 20:46 33.55432 -86.77235 720 ft 139 kts 53°
2026-05-03 20:46 33.55967 -86.76321 659 ft 120 kts 53°
2026-05-03 20:47 33.56288 -86.75760 658 ft 28 kts 56°
2026-05-03 20:47 33.56344 -86.75612 658 ft 12 kts 80°
2026-05-03 20:47 33.56356 -86.75514 658 ft 12 kts 82°
2026-05-03 20:47 33.56367 -86.75418 658 ft 13 kts 70°
2026-05-03 20:48 33.56358 -86.75345 658 ft 8 kts 127°
2026-05-03 20:48 33.56311 -86.75302 658 ft 7 kts 147°
2026-05-03 20:48 33.56289 -86.75285 658 ft 2 kts 147°
2026-05-03 20:48 33.56276 -86.75275 658 ft 0 kts 147°